Regional Weather Roundup
Issued by NWS

Home | Current Version | Previous Version | Text Only | Print | Product List | Glossary On
Versions: 1 2 3 4 5 6 7 8 9 10 11 12 13 14 15 16 17 18 19 20 21 22 23 24 25 26 27 28 29 30 31 32 33 34 35 36 37 38 39 40 41 42 43 44 45 46 47 48 49 50
092
ASUS44 KFWD 230815
RWRTX
NORTH TEXAS HOURLY WEATHER ROUNDUP
NATIONAL WEATHER SERVICE FORT WORTH TX
300 AM CDT MON APR 23 2018

NOTE: "FAIR" INDICATES FEW OR NO CLOUDS BELOW 12,000 FEET WITH NO
SIGNIFICANT WEATHER AND/OR OBSTRUCTIONS TO VISIBILITY.

TXZ118-119-230900-
DALLAS/FORT WORTH METROPLEX

CITY           SKY/WX    TMP DP  RH WIND       PRES   REMARKS
DFW AIRPORT    FAIR      54  48  80 N9        30.02S
DALLAS LOVE    FAIR      56  47  71 N8        30.03S
FTW MEACHAM    FAIR      55  47  74 NW8       30.04S
DAL-EXECUTIVE  FAIR      55  46  71 NW10      30.02F
FTW-ALLIANCE   FAIR      52  46  80 N6        30.04F
FTW-NAS-JRB    FAIR      55  47  74 NW8       30.04F
FTW-SPINKS     FAIR      53  46  75 CALM      30.04F
ARLINGTON      FAIR      54  47  77 NW10      30.03F
GRAND PRAIRIE  FAIR      57  45  65 NW5       30.05S
ADDISON        FAIR      54  48  80 N8        30.05F
MESQUITE       FAIR      54  46  76 NW8       30.02F
LANCASTER      FAIR      53  46  76 CALM      30.03S
$$

TXZ091>094-102>105-117-120-121-131>134-230900-
NORTH CENTRAL TEXAS

CITY           SKY/WX    TMP DP  RH WIND       PRES   REMARKS
SHRMAN/DENISON FAIR      49  46  90 NW7       30.04S
GAINESVILLE    FAIR      49  45  87 W5        30.07S
BOWIE          FAIR      49  46  90 NW6       30.07S
BRIDGEPORT     FAIR      53  47  80 N6        30.07F
DECATUR        FAIR      51  46  83 CALM      30.06S
DENTON         FAIR      50  47  89 NW8       30.04F
MCKINNEY       FAIR      53  49  86 NW9       30.03S
BONHAM         CLOUDY    50  47  88 NW6       30.01F
GREENVILLE     FAIR      54  50  87 W5        30.02S
ROCKWALL       FAIR      54  49  82 MISG      30.03S
TERRELL        FAIR      55  48  77 NW7       30.02S
WAXAHACHIE     FAIR      51  47  86 W5        30.04S
CLEBURNE       FAIR      50  46  87 NW7       30.05F
GRANBURY       FAIR      47  44  88 CALM      30.06F
$$

TXZ083>090-098>101-113>116-127>130-139>142-154-155-230900-
WESTERN NORTH TEXAS

CITY           SKY/WX    TMP DP  RH WIND       PRES   REMARKS
WICHITA FALLS  FAIR      49  45  86 N8        30.08F
WF-KICKAPOO    FAIR      54  46  76 N13       30.11F
VERNON         FAIR      50  45  83 N8        30.11F
ABILENE        FAIR      49  40  71 CALM      30.09F
ABILENE-DYESS  FAIR      47  35  65 CALM      30.09F
GRAHAM           N/A     46  32  59 CALM      30.07S
BRECKENRIDGE   FAIR      50  40  69 CALM      30.08F
CISCO          CLOUDY    48  41  76 CALM      30.09F
EASTLAND       FAIR      39  36  89 CALM      30.08F
RANGER         FAIR      49  42  78 W7        30.07F
MINERAL WELLS  FAIR      47  43  86 W6        30.04F
STEPHENVILLE   FAIR      49  42  78 NW6       30.09F
COMANCHE       FAIR      51  41  69 NW3       30.07F
COLEMAN        FAIR      49  37  63 CALM      30.09S
BRADY          FAIR      50  37  62 SW3       30.09S
$$

TXZ143>147-156>162-174-175-230900-
CENTRAL TEXAS

CITY           SKY/WX    TMP DP  RH WIND       PRES   REMARKS
WACO           FAIR      48  44  86 W6        30.04F
WACO-MCGREGOR  FAIR      51  44  77 W5        30.04F
HILLSBORO      FAIR      49  47  96 CALM      30.02F
CORSICANA      FAIR      51  46  83 NW7       30.03F
MEXIA          FAIR      50  44  80 W6        30.02F
HEARNE         FAIR      48  48 100 CALM      30.05S
CAMERON        FAIR      53  46  77 W6        30.05S
TEMPLE         FAIR      48  45  89 S3        30.05F
KILLEEN        CLEAR     54  41  62 W3        30.06F
KILLEEN-SKYLRK FAIR      51  45  79 W5        30.06F
FORT HOOD      FAIR      52  44  74 W3        30.02F
GATESVILLE     FAIR      48  43  81 N6        30.06F
HAMILTON       FAIR      50  42  73 N6        30.07F
LAMPASAS       FAIR      53  42  65 N5        30.05F
$$

TXZ095>097-106>112-122>126-135>138-148>153-164>167-230900-
EAST TEXAS

CITY           SKY/WX    TMP DP  RH WIND       PRES   REMARKS
PARIS          CLOUDY    55  49  80 W12       29.98F
SULPHUR SPRNGS FAIR      55  50  82 NW9       30.01F
MOUNT PLEASANT CLOUDY    56  49  77 NW10      29.99F
GILMER         CLOUDY    53  49  87 CALM      29.98F
MINEOLA        FAIR      52  48  87 W5        30.00F
TYLER          FAIR      52  49  89 N5        29.99F
LONGVIEW       CLOUDY    53  52  96 W7        29.97F
MARSHALL       CLOUDY    53  48  84 CALM      29.98F
ATHENS         FAIR      52  46  82 CALM      29.99F
PALESTINE      FAIR      47  46  97 CALM      30.01F
JACKSONVILLE   FAIR      53  48  82 W6        30.01S
HENDERSON      FAIR      50  48  93 CALM      29.99F
CENTER         FAIR      48  47  95 CALM      29.99S
NACOGDOCHES      N/A     47  46  97 CALM      30.00S
LUFKIN         FAIR      49  47  93 CALM      29.99F
$$

SUPPLEMENTAL OBSERVATIONS (NWS FORT WORTH AREA)

CITY           SKY/WX    TMP DP  RH WIND       PRES   REMARKS
DENISON DAM      N/A     54  48  82 NW17        N/A
CADDO GRASSLND   N/A     54  50  87 NW2         N/A
LBJ GRASSLAND    N/A     46  41  81 N2          N/A
POSSUM KINGDOM   N/A     48  41  76 W6          N/A
GRANBURY         N/A     48  43  81 NW3         N/A
COMANCHE         N/A     52  39  62 W7          N/A
MCGREGOR         N/A     52  43  71 NW2         N/A
TEMPLE           N/A     50  45  81 W6          N/A
LAKE LIMESTONE   N/A     52  46  82 W3          N/A
PALESTINE        N/A     50  48  93 CALM        N/A
$$

SUPPLEMENTAL OBSERVATIONS (NWS NORMAN AREA)

CITY           SKY/WX    TMP DP  RH WIND       PRES   REMARKS
GOODLETT         N/A     46  40  78 N8        30.13S
ODELL            N/A     46  44  94 N7        30.13F
CROWELL          N/A     51  43  74 N6        30.13F
KNOX CITY        N/A     47  35  62 NW3       30.12F
SEYMOUR          N/A     42  37  83 W1        30.12S
MILLERS CREEK    N/A     45  41  87 NE3         N/A
$$

SUPPLEMENTAL OBSERVATIONS (NWS SAN ANGELO AREA)

CITY           SKY/WX    TMP DP  RH WIND       PRES   REMARKS
WEINERT          N/A     46  33  59 NW3       30.12S
HASKELL          N/A     47  33  58 W3        30.11S
THROCKMORTON     N/A     49  42  78 N5        30.11S
STAMFORD         N/A     48  33  56 W5        30.11F
CLYDE            N/A     50  40  68 E3        30.10F
HAMBY            N/A     43  36  75 S1          N/A
IVIE RESERVOIR   N/A     52  39  62 SW1         N/A
COLORADO BEND    N/A     48  39  71 W2          N/A
$$

SUPPLEMENTAL OBSERVATIONS (NWS SHREVEPORT AREA)

CITY           SKY/WX    TMP DP  RH WIND       PRES   REMARKS
TEXARKANA        N/A     55  50  82 W5          N/A
LINDEN           N/A     54  48  82 NW6         N/A
CADDO LAKE       N/A     50  48  93 CALM        N/A
LUFKIN           N/A     48  46  93 MISG        N/A
N SABINE NF      N/A     46  45  93 MISG        N/A
$$

SUPPLEMENTAL OBSERVATIONS ARE A COLLECTION OF AUTOMATED INSTRUMENTS
THAT ARE MAINTAINED BY A VARIETY OF FEDERAL AND STATE AGENCIES.
CERTAIN ELEMENTS...SUCH AS HUMIDITY VALUES AND SUSTAINED WIND
SPEEDS...MAY BE APPROXIMATED.





USA.gov is the U.S. government's official web portal to all federal, state and local government web resources and services.